TimeEDT,TemperatureF,Dew PointF,Humidity,Sea Level PressureIn,VisibilityMPH,Wind Direction,Wind SpeedMPH,Gust SpeedMPH,PrecipitationIn,Events,Conditions,WindDirDegrees,DateUTC
12:53 AM,72.0,63.0,73,29.68,10.0,North,23.0,-,N/A,,Overcast,360,2012-10-27 04:53:00
1:53 AM,71.1,63.0,75,29.66,10.0,North,20.7,-,N/A,,Overcast,360,2012-10-27 05:53:00
2:53 AM,70.0,63.0,78,29.63,10.0,North,21.9,-,N/A,,Overcast,350,2012-10-27 06:53:00
3:53 AM,69.1,64.0,84,29.60,10.0,NNW,20.7,-,N/A,,Overcast,340,2012-10-27 07:53:00
4:53 AM,68.0,63.0,84,29.59,10.0,NNW,19.6,28.8,N/A,,Overcast,340,2012-10-27 08:53:00
5:53 AM,66.9,63.0,87,29.58,10.0,NNW,16.1,-,N/A,,Overcast,330,2012-10-27 09:53:00
6:53 AM,66.9,63.0,87,29.59,10.0,NNW,20.7,28.8,N/A,,Overcast,330,2012-10-27 10:53:00
7:53 AM,68.0,63.0,84,29.62,9.0,NNW,23.0,33.4,N/A,,Overcast,340,2012-10-27 11:53:00
8:53 AM,68.0,63.0,84,29.64,9.0,NNW,21.9,29.9,N/A,,Overcast,330,2012-10-27 12:53:00
9:53 AM,69.1,63.0,81,29.64,9.0,NNW,24.2,29.9,N/A,,Overcast,330,2012-10-27 13:53:00
10:53 AM,70.0,64.0,81,29.65,9.0,NNW,24.2,33.4,N/A,,Overcast,340,2012-10-27 14:53:00
11:53 AM,70.0,64.0,81,29.65,9.0,NNW,21.9,28.8,N/A,,Overcast,340,2012-10-27 15:53:00
12:53 PM,71.1,63.0,75,29.64,10.0,NNW,25.3,32.2,N/A,,Overcast,330,2012-10-27 16:53:00
1:37 PM,71.6,62.6,73,29.64,10.0,NNW,20.7,28.8,N/A,,Overcast,330,2012-10-27 17:37:00
1:53 PM,72.0,63.0,73,29.62,10.0,NNW,19.6,25.3,N/A,,Overcast,330,2012-10-27 17:53:00
2:50 PM,73.4,62.6,69,29.61,10.0,NNW,21.9,-,N/A,,Overcast,340,2012-10-27 18:50:00
2:53 PM,73.0,63.0,71,29.60,10.0,NNW,19.6,-,N/A,,Overcast,340,2012-10-27 18:53:00
3:53 PM,73.0,63.0,71,29.58,10.0,NW,17.3,23.0,N/A,,Overcast,320,2012-10-27 19:53:00
4:53 PM,73.9,63.0,68,29.59,10.0,NW,15.0,23.0,N/A,,Overcast,320,2012-10-27 20:53:00
5:53 PM,73.0,63.0,71,29.59,10.0,NW,11.5,-,N/A,,Overcast,310,2012-10-27 21:53:00
6:53 PM,72.0,63.0,73,29.61,10.0,NW,11.5,-,N/A,,Overcast,310,2012-10-27 22:53:00
7:53 PM,72.0,63.0,73,29.63,10.0,NW,9.2,-,N/A,,Overcast,310,2012-10-27 23:53:00
8:53 PM,71.1,63.0,75,29.64,10.0,WNW,11.5,-,N/A,,Overcast,300,2012-10-28 00:53:00
9:53 PM,71.1,63.0,75,29.65,10.0,NW,13.8,-,N/A,,Overcast,310,2012-10-28 01:53:00
10:53 PM,71.1,62.1,73,29.66,10.0,NW,12.7,-,N/A,,Overcast,310,2012-10-28 02:53:00
11:53 PM,71.1,61.0,70,29.66,10.0,NW,13.8,23.0,N/A,,Mostly Cloudy,320,2012-10-28 03:53:00